RH
80 81 82 83 82 82 84 85 83 84 85 85 86 84 85 86 90 40 12 18 20 63 50 13 12 11 8 11 9 8 12 8 9 13 12 10 13 13 14 17 20 24 27 40 38
80 82 83 82 83 83 85 86 84 84 85 86 86 85 84 86 38 17 25 63 69 71 12 11 7 6 7 8 8 8 9 6 6 10 12 11 13 13 15 17 24 27 29 27 31
81 82 82 81 81 83 84 84 86 84 86 86 86 85 84 74 24 8 51 63 69 52 8 7 5 6 8 9 7 8 7 5 6 8 9 11 17 14 17 21 25 33 33 30 30
81 80 80 80 81 81 82 82 83 84 86 87 86 87 81 41 19 12 56 64 70 11 8 10 6 7 9 9 7 8 5 5 6 8 9 13 14 15 18 19 21 26 28 29 30
82 82 82 82 82 82 82 83 84 85 88 88 86 83 59 21 12 20 63 49 8 8 9 8 5 7 10 7 7 7 5 5 4 7 9 10 13 14 17 18 21 24 27 28 28
84 85 86 85 84 85 86 86 86 86 89 88 84 81 31 20 11 16 8 6 4 6 9 4 4 6 9 7 7 6 5 5 4 7 9 12 14 17 19 20 23 25 27 26 26
84 85 85 86 85 85 86 86 84 85 86 84 82 48 22 13 9 10 6 4 4 6 6 4 3 6 8 7 6 5 6 4 6 7 9 9 25 20 20 20 24 25 26 25 26
83 84 85 86 86 86 86 87 84 85 84 80 80 33 21 8 9 6 6 4 4 4 3 3 4 8 8 7 6 7 7 6 6 7 8 16 60 20 19 22 24 24 24 25 26
83 84 85 85 86 87 87 86 84 84 81 75 51 30 14 20 10 5 4 4 4 4 4 3 6 9 9 9 8 7 9 7 6 6 8 14 20 19 18 21 24 24 24 25 26
83 84 84 85 86 86 85 86 74 78 64 32 24 22 14 12 8 5 3 3 4 4 5 6 8 10 10 9 12 9 8 7 8 6 7 12 18 22 18 19 23 23 24 25 27
84 84 84 84 85 86 62 23 35 32 24 15 10 10 9 8 7 5 4 4 4 5 6 8 7 10 9 8 8 7 6 8 6 5 7 14 20 18 15 17 20 24 26 26 27
85 84 84 84 85 82 64 15 12 10 13 14 12 8 6 7 9 6 4 6 6 6 6 7 8 6 6 7 7 7 8 7 6 6 6 14 16 14 13 15 17 21 24 24 25
86 86 85 85 83 56 17 12 6 7 13 9 8 8 6 8 8 6 5 5 5 6 6 7 6 5 5 6 7 7 8 7 7 6 5 7 10 15 13 12 18 46 20 20 25
86 86 85 87 42 16 10 8 7 8 15 9 8 7 5 8 8 5 5 4 5 5 5 6 5 5 5 6 6 8 6 6 7 8 9 7 11 19 15 14 21 27 18 18 23
86 86 85 85 38 16 6 5 7 10 21 5 5 5 6 7 7 7 4 4 7 5 5 7 6 6 6 6 5 7 6 7 7 8 9 9 9 13 11 16 15 16 17 17 21
86 85 84 29 37 23 11 7 8 18 19 7 5 7 7 6 7 6 5 4 5 7 6 6 5 6 6 5 5 6 7 8 7 8 12 11 11 11 11 14 15 12 16 17 20
85 83 76 40 14 7 7 6 16 21 9 7 8 6 6 7 8 7 8 8 9 12 11 8 6 6 5 6 6 6 9 14 14 12 12 8 9 15 11 11 12 13 13 17 19
85 85 54 28 19 17 10 12 24 13 11 5 6 7 7 6 8 7 9 10 8 8 9 10 11 7 6 6 8 7 8 12 24 16 12 10 12 10 9 9 9 9 10 12 21
84 24 13 16 18 13 11 14 18 13 8 7 6 8 8 6 7 7 9 10 8 8 12 10 10 6 5 5 6 9 10 6 10 10 13 13 12 11 10 9 8 10 11 10 12
57 30 18 8 10 13 13 17 10 8 8 8 9 8 9 7 7 7 9 8 8 6 7 9 12 6 5 5 6 7 7 10 10 23 22 12 16 13 17 13 13 13 13 14 14
48 21 8 6 10 13 12 10 8 5 6 9 10 9 8 7 6 7 8 7 6 6 6 7 9 9 7 8 8 8 9 9 8 10 14 16 23 18 19 15 14 12 14 16 16
26 18 8 9 18 14 10 8 12 6 5 6 9 9 9 8 8 7 7 7 5 6 8 7 7 12 8 6 6 6 8 10 14 23 14 16 22 9 11 11 11 12 16 14 16
35 18 10 12 19 14 10 6 5 5 6 6 9 10 9 11 14 8 6 5 5 6 8 8 10 12 12 8 7 8 8 8 9 11 21 17 16 11 12 12 13 14 16 21 17
34 20 13 12 15 16 13 9 7 4 5 5 7 8 10 11 11 13 7 5 5 5 32 16 9 16 11 13 9 12 8 8 9 14 14 12 20 17 15 15 16 17 18 19 28
34 21 15 20 14 17 15 14 11 7 5 5 7 8 10 13 11 12 10 8 6 24 11 8 19 12 8 8 8 8 8 8 10 11 14 13 12 17 22 18 18 19 23 20 22
36 27 22 26 26 27 30 16 13 10 6 6 8 8 8 12 12 12 11 12 10 9 8 7 19 15 12 8 8 9 8 8 8 8 10 10 12 19 19 17 18 18 18 21 25
32 27 30 36 23 20 20 18 10 11 10 6 6 8 9 8 7 8 9 9 9 11 14 13 15 21 19 10 9 12 10 8 9 9 8 13 15 18 20 20 20 18 16 17 18
Wind_Speed
21 21 20 18 17 17 18 17 18 17 16 13 11 10 10 10 11 8 11 5 9 12 4 12 13 18 17 17 20 17 11 9 12 14 13 16 15 15 15 12 20 17 22 30 26
22 21 21 21 19 17 17 18 18 18 16 14 12 9 8 8 9 18 10 9 9 11 9 13 13 14 12 18 10 10 6 12 7 16 18 15 16 17 15 18 22 23 23 20 26
21 21 21 22 22 19 17 17 18 18 17 14 12 10 8 8 10 12 14 15 11 10 16 15 16 15 16 18 10 11 9 12 5 14 16 12 18 11 16 17 22 25 24 21 20
22 22 22 22 22 22 20 20 19 19 16 14 12 9 5 8 4 6 7 8 9 11 13 17 13 16 18 14 2 5 5 11 7 3 11 17 18 20 15 20 22 23 22 20 19
23 23 23 23 23 23 22 21 20 18 16 14 11 5 6 9 13 10 10 8 10 12 16 15 15 17 20 6 6 6 9 6 10 5 12 18 19 17 17 21 22 22 20 19 17
23 23 23 23 22 22 22 21 19 17 16 11 8 2 7 13 10 13 14 13 13 16 16 16 15 16 14 4 8 9 3 9 13 3 11 20 17 17 17 21 20 20 19 17 17
22 23 23 23 24 23 22 22 21 16 12 6 6 7 12 14 2 13 13 14 15 17 15 16 18 12 11 2 3 4 10 9 16 10 8 14 17 15 20 18 20 18 17 16 16
22 23 24 24 24 24 23 22 22 15 9 5 5 9 9 16 3 8 14 15 17 17 18 11 11 13 17 11 3 12 15 12 15 15 7 16 12 17 18 20 18 17 16 15 15
23 23 24 25 25 25 25 24 20 12 7 5 7 9 14 6 12 12 14 15 14 13 11 8 8 13 17 12 13 14 14 15 15 16 16 16 16 17 19 17 17 15 15 14 15
23 24 25 26 25 25 28 24 3 8 7 10 11 10 13 15 14 14 13 14 14 13 13 8 8 13 16 13 14 15 10 17 13 12 14 15 15 6 20 20 18 16 15 15 16
24 25 26 26 27 23 17 4 6 7 11 14 14 15 12 15 15 14 16 16 15 14 15 15 13 15 21 18 21 15 6 17 17 15 7 21 20 22 19 20 19 20 17 16 17
24 25 27 29 29 25 10 8 10 13 12 21 22 21 12 14 16 17 17 15 15 17 18 14 18 19 19 20 14 8 11 2 9 16 11 23 23 21 17 19 19 19 17 18 17
24 25 27 31 33 12 11 17 15 15 11 17 20 21 16 14 16 20 21 20 18 19 20 20 19 21 20 18 12 10 11 10 9 14 8 12 11 19 18 14 19 9 18 19 19
25 25 26 32 10 13 13 6 7 9 9 17 24 23 20 16 20 21 22 21 13 20 21 20 21 20 17 12 11 12 14 13 11 12 10 14 11 18 20 16 24 25 22 20 19
25 25 25 13 14 9 14 10 10 8 8 11 24 14 21 22 10 20 23 23 20 18 17 20 18 12 10 13 14 16 16 10 7 6 12 15 11 14 19 18 15 20 23 21 22
26 25 22 15 9 17 17 16 11 9 13 4 19 21 25 21 25 22 22 24 19 18 20 20 17 13 16 15 17 18 1 7 11 11 13 12 14 12 16 14 16 17 22 21 22
28 30 19 12 9 14 12 10 9 13 13 13 21 21 26 24 26 23 25 24 21 17 18 19 22 15 14 16 16 17 12 7 9 11 12 17 11 4 5 17 15 19 17 20 21
31 36 11 11 14 16 8 9 15 13 28 13 18 18 26 25 26 26 25 22 26 23 15 17 16 17 16 20 16 18 14 11 14 10 14 6 8 5 14 11 7 4 3 3 23
34 10 12 12 16 10 10 15 19 23 23 26 17 22 24 27 21 25 26 25 26 26 20 18 22 20 20 18 19 14 15 20 20 15 6 8 10 7 8 6 6 2 3 8 11
12 12 14 15 19 11 12 23 23 26 31 26 23 18 20 26 29 26 24 24 26 28 25 20 14 21 22 16 19 17 17 16 11 11 13 11 16 7 13 10 9 4 6 7 8
7 8 3 18 12 12 17 25 27 28 26 25 24 21 19 21 27 28 27 23 28 26 26 25 21 16 21 17 20 18 17 11 15 12 10 13 6 13 11 11 10 6 6 1 6
7 8 8 11 12 12 18 27 24 26 28 29 23 21 21 19 23 29 30 27 25 28 29 26 17 15 22 17 18 20 18 15 10 11 11 10 10 16 14 10 8 13 10 3 8
7 12 13 11 14 15 20 26 27 28 28 27 23 19 21 23 20 23 29 25 22 24 25 21 18 13 18 21 19 17 17 19 16 13 13 10 5 15 15 13 11 11 8 9 2
7 7 11 13 14 21 21 24 26 28 29 28 26 21 22 24 21 20 23 22 21 24 15 17 19 17 14 15 19 23 22 21 18 13 14 14 13 17 16 12 13 9 6 4 7
7 9 15 9 16 20 24 24 25 27 29 28 25 20 21 22 22 19 19 17 23 13 15 19 17 21 24 20 17 18 20 20 21 13 15 12 10 9 15 13 11 9 6 3 3
7 10 13 16 19 19 17 26 27 24 26 28 22 20 24 23 20 17 20 21 20 15 14 17 12 17 22 22 24 20 24 22 22 19 17 15 13 15 12 13 10 7 5 4 4
9 13 10 12 16 16 15 17 25 25 20 26 22 24 25 21 19 21 13 18 18 17 14 15 13 13 18 23 21 21 19 18 18 21 18 14 10 14 14 11 7 5 3 2 4
Wind_Direction
1 357 356 355 355 349 342 338 335 330 324 317 310 307 306 304 293 239 242 237 183 167 156 265 227 257 264 262 264 273 284 64 64 98 103 102 86 104 132 115 80 107 117 135 142
358 355 351 351 349 348 341 334 332 327 321 316 311 307 305 307 262 257 236 126 138 155 216 239 254 254 262 259 259 269 317 69 48 96 128 95 134 129 118 117 115 113 119 133 135
356 353 349 347 345 342 340 334 329 325 318 313 310 309 303 282 265 239 181 150 158 186 243 271 267 281 265 260 239 282 76 110 100 92 111 123 56 38 120 120 127 134 140 146 143
352 350 347 344 341 338 336 333 329 323 315 307 307 305 290 248 291 85 118 137 153 211 235 255 253 260 251 252 295 291 49 97 110 167 119 111 153 104 135 122 130 137 144 147 152
348 346 343 340 338 334 331 330 327 320 311 300 299 298 243 222 252 136 145 149 169 201 223 236 235 242 251 217 231 254 118 124 129 212 101 93 88 89 98 119 129 141 147 155 154
345 342 339 337 334 331 327 326 325 319 309 286 280 215 256 255 88 142 161 167 191 197 222 233 236 248 307 203 233 93 204 141 142 193 136 115 117 112 111 127 136 149 155 165 154
343 340 337 333 331 328 325 323 321 316 315 268 236 240 257 252 76 157 171 186 202 202 219 228 246 286 241 235 332 174 206 176 144 174 181 134 31 117 130 137 146 158 164 165 160
341 338 335 331 328 324 322 318 314 306 302 257 217 242 257 202 256 174 178 187 207 210 232 225 254 277 274 292 183 249 226 170 156 173 168 100 184 141 139 143 156 162 167 162 169
338 336 333 328 326 323 319 312 301 286 270 224 230 229 252 104 207 191 190 188 189 214 247 256 238 250 255 253 220 214 241 186 164 184 150 151 168 147 152 153 158 166 166 170 173
336 334 331 326 324 324 320 297 282 292 217 224 258 252 239 211 188 188 194 201 185 205 211 222 228 233 245 233 239 217 193 163 172 184 171 162 138 241 166 158 155 170 172 179 176
335 332 328 324 321 323 331 249 204 193 227 230 179 227 143 209 164 189 191 191 193 204 211 207 218 215 232 231 251 296 238 202 162 167 214 152 160 203 182 160 168 166 175 182 180
332 330 327 323 317 316 284 254 337 337 296 225 249 231 266 145 173 190 187 199 198 205 211 190 226 229 231 246 257 280 300 217 151 155 199 168 185 175 186 184 165 164 177 175 178
330 329 327 323 315 285 244 271 307 303 285 269 231 228 204 172 194 189 189 203 198 211 205 227 209 228 237 241 250 211 242 220 234 157 191 262 192 166 184 204 127 114 183 175 176
327 327 329 330 292 336 277 287 248 285 278 254 217 209 205 206 224 182 192 202 191 213 223 227 249 205 236 237 218 223 224 248 189 190 208 219 250 175 182 190 153 183 182 179 179
323 324 325 320 304 289 334 335 332 268 267 207 189 175 195 202 179 202 183 206 229 210 218 220 235 223 224 223 220 243 190 231 261 235 254 214 232 194 195 186 189 194 174 183 176
319 318 329 307 211 256 293 291 275 233 237 242 159 185 192 198 225 172 185 219 230 231 227 241 206 216 227 222 213 236 173 179 240 253 241 227 220 264 183 198 186 219 183 184 176
317 311 303 277 254 356 315 267 228 236 227 242 156 201 197 193 212 179 188 200 219 223 221 224 240 206 215 221 221 224 195 207 223 228 235 239 219 257 129 194 208 201 207 186 171
317 308 257 225 229 250 257 229 232 222 241 254 171 198 202 198 205 217 187 203 215 222 217 218 218 207 198 225 204 210 212 225 208 218 240 169 181 185 102 92 60 360 355 249 135
314 295 266 216 226 241 235 227 219 233 223 244 247 190 209 213 202 208 205 207 208 219 231 204 224 191 218 222 237 198 224 247 263 287 173 226 204 128 134 124 140 145 296 251 232
313 293 254 238 176 200 223 236 231 234 250 269 257 236 209 207 211 213 198 208 217 210 229 245 214 223 193 204 238 218 209 239 256 269 285 216 184 186 139 164 128 189 209 244 231
264 269 295 182 150 211 218 233 232 255 245 261 269 259 244 227 218 216 209 207 213 213 220 238 252 218 187 194 216 220 235 225 246 221 246 257 59 100 130 122 148 158 114 44 276
293 261 161 159 199 224 229 232 252 247 246 258 263 258 260 264 233 224 223 211 205 213 207 226 246 248 196 195 214 232 216 222 244 250 281 306 179 142 136 144 149 107 115 61 332
286 282 278 213 229 230 239 236 243 246 251 243 249 251 265 273 275 240 225 217 212 206 223 202 232 241 245 193 192 234 233 220 233 261 271 274 126 146 152 161 161 141 140 134 178
279 269 209 226 242 256 246 238 231 240 246 250 243 232 237 261 268 272 240 212 212 214 201 223 216 234 227 219 197 204 224 243 236 219 228 246 158 189 174 178 151 145 134 122 149
246 257 306 283 216 233 248 265 259 232 230 241 246 236 242 245 254 261 265 256 208 206 182 227 223 224 241 256 222 203 212 233 244 249 258 247 258 197 165 172 135 127 118 130 168
288 332 328 299 294 293 280 233 254 253 229 219 235 234 240 234 247 243 249 255 220 173 183 210 223 229 242 245 253 245 209 202 223 235 234 258 277 113 127 113 120 135 145 159 157
308 322 323 293 291 287 264 256 237 257 265 242 210 225 248 238 243 247 302 266 252 182 191 212 223 212 233 241 248 245 246 210 211 213 223 228 216 126 127 135 141 154 139 43 41